Orbital Elements at Epoch 2459200.5 (2020-Dec-17.0) TDB
Reference: JPL 3 (heliocentric ecliptic J2000)
Element | Value | Uncertainty (1-sigma) | Units |
e | .6766591891211818 | 3.5908e-05 | |
a | .8837237717866711 | 2.8828e-05 | au |
q | .2857439609623899 | 2.2433e-05 | au |
i | 34.93505341499565 | 0.0055641 | deg |
node | 65.27704098238326 | 0.0005827 | deg |
peri | 149.2444778464447 | 0.0002323 | deg |
M | 80.7226139291504 | 0.036448 | deg |
tp | 2459132.459742436821 (2020-Oct-09.95974244) | 0.027392 | TDB |
period | 303.4402818551335 0.83 | 0.014848 4.065e-05 | d yr |
n | 1.186394890615969 | 5.8053e-05 | deg/d |
Q | 1.481703582610952 | 4.8335e-05 | au |
|
| | Orbit Determination Parameters
Additional Information
|